Leesburg, FL

12:34 PM EST on January 24, 2017 (GMT -0500)
Leesburg Regional

Weather History for KLEE - January, 2013

Change the Weather History Date:

Wednesday, January 9, 2013

  Actual Average Record
Temperature  
Mean Temperature 75 °F -  
Max Temperature 82 °F 70 °F 82 °F (1964)
Min Temperature 68 °F 47 °F 25 °F (1970)
Cooling Degree Days 10    
Growing Degree Days 25 (Base 50)    
Moisture  
Dew Point 67 °F    
Average Humidity 89    
Maximum Humidity 100    
Minimum Humidity 58    
Precipitation  
Precipitation 0.00 in - - ()
Sea Level Pressure  
Sea Level Pressure 30.26 in    
Wind  
Wind Speed 6 mph (East)    
Max Wind Speed 10 mph    
Max Gust Speed -    
Visibility 6 miles    
Events Fog    
Averages and records for this station are not official NWS values.
T = Trace of Precipitation, MM = Missing Value Source: NWS Daily Summary

Daily Weather History Graph

Daily Weather History Graph

Search for Another Location

Airport or City:

Trip Planner

Search our weather history database for the weather conditions in past years. The results will help you decide how hot, cold, wet, or windy it might be!

Date:

Astronomy

Jan. 09, 2013 Rise Set
Actual Time 7:21 AM EST 5:47 PM EST
Civil Twilight 6:56 AM EST 6:13 PM EST
Nautical Twilight 6:26 AM EST 6:42 PM EST
Astronomical Twilight 5:58 AM EST 7:11 PM EST
Moon 4:59 AM EST (1/9) 3:48 PM EST (1/9)
Length of Visible Light 11h 17m
Length of Day
10h 25m
Waning Crescent, 6% of the Moon is Illuminated
Jan 9
Waning Crescent
Jan 11
New
Jan 18
First Quarter
Jan 26
Full
Feb 3
Last Quarter

Hourly Weather History & Observations

Time (EST) Temp. Heat Index Dew Point Humidity Pressure Visibility Wind Dir Wind Speed Gust Speed Precip Events Conditions
12:20 AM 69.8 °F - 66.2 °F 88% 30.24 in 10.0 mi ENE 8.1 mph - N/A   Overcast
12:53 AM 69.1 °F - 68.0 °F 96% 30.24 in 3.0 mi ENE 9.2 mph - N/A   Overcast
1:06 AM 69.8 °F - 68.0 °F 94% 30.23 in 2.5 mi ENE 9.2 mph - N/A   Overcast
1:13 AM 69.8 °F - 68.0 °F 94% 30.24 in 3.0 mi ENE 6.9 mph - N/A   Overcast
1:53 AM 69.1 °F - 68.0 °F 96% 30.23 in 4.0 mi ENE 5.8 mph - N/A   Overcast
2:31 AM 69.8 °F - 68.0 °F 94% 30.23 in 2.5 mi ENE 5.8 mph - N/A   Overcast
2:53 AM 69.1 °F - 68.0 °F 96% 30.23 in 3.0 mi ENE 4.6 mph - N/A   Overcast
3:19 AM 68.0 °F - 68.0 °F 100% 30.23 in 1.8 mi ENE 6.9 mph - N/A   Overcast
3:30 AM 68.0 °F - 66.2 °F 94% 30.23 in 0.5 mi ENE 5.8 mph - N/A Fog Fog
3:53 AM 68.0 °F - 66.9 °F 96% 30.23 in 0.5 mi ENE 5.8 mph - N/A Fog Fog
4:05 AM 68.0 °F - 66.2 °F 94% 30.23 in 1.5 mi NE 5.8 mph - N/A   Overcast
4:10 AM 68.0 °F - 66.2 °F 94% 30.23 in 2.0 mi NE 4.6 mph - N/A   Overcast
4:19 AM 68.0 °F - 66.2 °F 94% 30.23 in 4.0 mi ENE 4.6 mph - N/A   Overcast
4:33 AM 68.0 °F - 66.2 °F 94% 30.23 in 5.0 mi East 3.5 mph - N/A   Overcast
4:51 AM 68.0 °F - 68.0 °F 100% 30.22 in 7.0 mi East 4.6 mph - N/A   Overcast
4:53 AM 68.0 °F - 68.0 °F 100% 30.22 in 7.0 mi East 4.6 mph - N/A   Overcast
5:37 AM 68.0 °F - 66.2 °F 94% 30.24 in 1.8 mi ENE 3.5 mph - N/A   Overcast
5:44 AM 68.0 °F - 66.2 °F 94% 30.24 in 1.0 mi ENE 3.5 mph - N/A   Overcast
5:53 AM 68.0 °F - 66.9 °F 96% 30.24 in 1.2 mi ENE 3.5 mph - N/A   Overcast
6:53 AM 68.0 °F - 68.0 °F 100% 30.25 in 1.0 mi ENE 5.8 mph - N/A   Mist
7:20 AM 68.0 °F - 68.0 °F 100% 30.26 in 3.0 mi East 3.5 mph - N/A   Overcast
7:53 AM 68.0 °F - 68.0 °F 100% 30.27 in 5.0 mi Calm Calm - N/A   Overcast
8:20 AM 69.8 °F - 68.0 °F 94% 30.29 in 7.0 mi Calm Calm - N/A   Overcast
8:53 AM 70.0 °F - 69.1 °F 97% 30.30 in 7.0 mi East 3.5 mph - N/A   Overcast
9:53 AM 71.1 °F - 69.1 °F 93% 30.31 in 7.0 mi ESE 4.6 mph - N/A   Overcast
10:53 AM 75.0 °F - 69.1 °F 82% 30.32 in 10.0 mi ESE 5.8 mph - N/A   Overcast
11:53 AM 78.1 °F - 68.0 °F 71% 30.30 in 10.0 mi SSE 8.1 mph - N/A   Overcast
12:53 PM 78.1 °F - 66.9 °F 68% 30.28 in 10.0 mi SSE 10.4 mph - N/A   Overcast
1:53 PM 81.0 °F 83.0 °F 66.0 °F 60% 30.25 in 10.0 mi SSE 5.8 mph - N/A   Overcast
2:53 PM 82.0 °F 84.1 °F 66.0 °F 58% 30.25 in 10.0 mi East 5.8 mph - N/A   Overcast
3:53 PM 81.0 °F 83.8 °F 68.0 °F 65% 30.25 in 10.0 mi ENE 9.2 mph - N/A   Scattered Clouds
4:53 PM 79.0 °F - 66.9 °F 66% 30.26 in 10.0 mi East 8.1 mph - N/A   Partly Cloudy
5:53 PM 77.0 °F - 66.9 °F 71% 30.27 in 10.0 mi ENE 4.6 mph - N/A   Clear
7:53 PM 73.9 °F - 68.0 °F 82% 30.30 in 10.0 mi East 10.4 mph - N/A   Clear
8:53 PM 73.0 °F - 68.0 °F 84% 30.31 in 10.0 mi East 5.8 mph - N/A   Clear
9:53 PM 72.0 °F - 68.0 °F 87% 30.32 in 10.0 mi East 9.2 mph - N/A   Clear
10:53 PM 72.0 °F - 69.1 °F 91% 30.33 in 10.0 mi ESE 9.2 mph - N/A   Scattered Clouds
11:53 PM 71.1 °F - 68.0 °F 90% 30.33 in 8.0 mi East 5.8 mph - N/A   Scattered Clouds